EW5303 Weather Reports


time (UTC)temp
C
wind
direction
speed
KPH
gust
KPH
rain 1hr
cm
rain 24hr
cm
rain mn
cm
humidity
%
barometer
mb
20260505041505 15 279 0.0 3.2 0.00 0.00 0.00 64 1012.3
20260505034505 15 279 0.0 3.2 0.00 0.00 0.00 66 1012.2
20260505033005 15 281 0.0 3.2 0.00 0.00 0.00 68 1012.2
20260505031505 15 280 0.0 3.2 0.00 0.00 0.00 69 1012.2
20260505030005 15 0 0.0 0.0 0.00 0.00 0.00 68 1012.2
20260505024505 15 0 0.0 0.0 0.00 0.00 0.00 68 1012.3
20260505023005 16 280 0.0 3.2 0.00 0.00 0.00 68 1012.2
20260505021526 16 0 0.0 0.0 0.00 0.00 0.00 69 1012.3
20260505020005 16 0 0.0 0.0 0.00 0.00 0.00 69 1012.3
20260505014505 16 0 0.0 0.0 0.00 0.00 0.00 69 1012.0
20260505013004 16 0 0.0 0.0 0.00 0.00 0.00 69 1011.9
20260505011525 16 0 0.0 0.0 0.00 0.00 0.00 68 1011.6
20260505010005 16 0 0.0 0.0 0.00 0.00 0.00 66 1011.4
20260505004504 17 0 0.0 0.0 0.00 0.00 0.00 64 1011.2
20260505003005 18 0 0.0 0.0 0.00 0.00 0.00 62 1011.2
20260505001504 20 0 0.0 0.0 0.00 0.00 0.00 59 1011.1
20260505000004 21 0 0.0 0.0 0.00 0.00 0.00 54 1011.0
20260504234504 22 0 0.0 0.0 0.00 0.00 0.00 51 1011.0
20260504233004 23 280 0.0 3.2 0.00 0.00 0.00 49 1010.9
20260504231504 24 0 0.0 0.0 0.00 0.00 0.00 46 1010.8
20260504230005 25 341 0.0 3.2 0.00 0.00 0.00 43 1010.8
20260504224525 26 90 0.0 6.4 0.00 0.00 0.00 43 1011.0
20260504223004 26 256 0.0 8.0 0.00 0.00 0.00 42 1011.2
20260504221504 25 91 0.0 3.2 0.00 0.00 0.00 45 1011.3
20260504220025 25 105 0.0 3.2 0.00 0.00 0.00 45 1011.3
20260504214504 24 233 0.0 6.4 0.00 0.00 0.00 42 1011.2
20260504213004 25 263 0.0 8.0 0.00 0.00 0.00 42 1011.3
20260504211504 25 286 0.0 6.4 0.00 0.00 0.00 42 1011.3
20260504210004 26 294 0.0 8.0 0.00 0.00 0.00 40 1011.4
20260504204525 26 274 0.0 11.3 0.00 0.00 0.00 40 1011.2
20260504203004 25 257 3.2 8.0 0.00 0.00 0.00 39 1011.4
20260504201504 26 301 0.0 6.4 0.00 0.00 0.00 41 1011.5
20260504200004 26 223 3.2 6.4 0.00 0.00 0.00 40 1011.6
20260504194503 26 288 3.2 11.3 0.00 0.00 0.00 37 1012.0
20260504193004 26 334 3.2 16.1 0.00 0.00 0.00 41 1012.2
20260504191504 26 287 6.4 19.3 0.00 0.00 0.00 37 1012.1
20260504190004 26 260 3.2 19.3 0.00 0.00 0.00 35 1012.2
20260504184503 26 300 6.4 22.5 0.00 0.00 0.00 36 1012.5
20260504183024 26 350 6.4 19.3 0.00 0.00 0.00 35 1012.4
20260504181503 26 282 6.4 19.3 0.00 0.00 0.00 35 1012.7
20260504180004 25 291 6.4 25.7 0.00 0.00 0.00 32 1012.9
20260504174504 25 283 6.4 22.5 0.00 0.00 0.00 37 1012.9
20260504173003 25 297 6.4 16.1 0.00 0.00 0.00 36 1013.0
20260504171504 25 293 6.4 14.5 0.00 0.00 0.00 35 1013.3
20260504081526 4 0 0.0 0.0 0.00 0.00 0.00 89 1015.9